UTA7775 USTR-USRO

Flight info

Callsign UTA7775
Flight time 1h 21m
Altitude 35000
Route SOLMU1R SOLMU R717 INGIR INGIR1J
Aircraft B738/M-SDE2E3FGHIRWXY/LB1

Departure

Time 2026-04-22 12:17
Airport Roshchino International Airport (USTR)

Arrival

Time 2026-04-22 13:38
Airport Noyabrsk Airport (USRO)
Time Latitude Longitude Altitude Speed Heading
2026-04-22 11:51 57.18967 65.33089 339 ft 0 kts 224°
2026-04-22 12:13 57.18955 65.33053 339 ft 8 kts 242°
2026-04-22 12:14 57.18965 65.32954 336 ft 8 kts 307°
2026-04-22 12:14 57.19005 65.32877 339 ft 8 kts 313°
2026-04-22 12:14 57.19048 65.32794 337 ft 9 kts 314°
2026-04-22 12:14 57.19092 65.32705 339 ft 9 kts 302°
2026-04-22 12:15 57.19083 65.32597 339 ft 9 kts 232°
2026-04-22 12:15 57.19062 65.32555 338 ft 0 kts 225°
2026-04-22 12:16 57.19051 65.32535 337 ft 12 kts 225°
2026-04-22 12:16 57.18970 65.32429 331 ft 16 kts 179°
2026-04-22 12:16 57.18915 65.32491 329 ft 0 kts 135°
2026-04-22 12:16 57.18737 65.32822 326 ft 91 kts 135°
2026-04-22 12:17 57.18044 65.34078 383 ft 184 kts 135°
2026-04-22 12:17 57.17018 65.35959 949 ft 222 kts 140°
2026-04-22 12:17 57.15660 65.37535 1532 ft 248 kts 166°
2026-04-22 12:17 57.13949 65.37446 2383 ft 252 kts 204°
2026-04-22 12:18 57.12589 65.35757 3837 ft 230 kts 226°
2026-04-22 12:18 57.11738 65.33449 5267 ft 212 kts 249°
2026-04-22 12:18 57.11501 65.30862 6448 ft 205 kts 272°
2026-04-22 12:18 57.11848 65.28305 7357 ft 208 kts 289°
2026-04-22 12:19 57.12680 65.26049 8084 ft 224 kts 317°
2026-04-22 12:19 57.13599 65.25131 8711 ft 228 kts 337°
2026-04-22 12:19 57.15216 65.24695 9446 ft 240 kts 358°
2026-04-22 12:19 57.16896 65.25424 10123 ft 255 kts 17°
2026-04-22 12:20 57.18551 65.26596 10915 ft 258 kts 14°
2026-04-22 12:20 57.20199 65.28061 11582 ft 274 kts 36°
2026-04-22 12:20 57.21300 65.31047 12141 ft 295 kts 67°
2026-04-22 12:20 57.21896 65.34843 12363 ft 323 kts 81°
2026-04-22 12:21 57.22250 65.39106 12591 ft 349 kts 85°
2026-04-22 12:21 57.22552 65.43709 12788 ft 375 kts 85°
2026-04-22 12:21 57.22868 65.48595 13229 ft 390 kts 84°
2026-04-22 12:21 57.23211 65.53632 13960 ft 396 kts 84°
2026-04-22 12:22 57.23603 65.58682 14757 ft 400 kts 84°
2026-04-22 12:22 57.24000 65.63740 15382 ft 405 kts 85°
2026-04-22 12:22 57.24361 65.69015 15936 ft 412 kts 84°
2026-04-22 12:22 57.24769 65.74291 16607 ft 417 kts 84°
2026-04-22 12:23 57.25200 65.79609 17285 ft 421 kts 84°
2026-04-22 12:23 57.25629 65.84969 17638 ft 423 kts 84°
2026-04-22 12:23 57.26051 65.90324 17726 ft 429 kts 84°
2026-04-22 12:23 57.26489 65.95752 17728 ft 426 kts 83°
2026-04-22 12:24 57.26918 66.01168 17727 ft 427 kts 87°
2026-04-22 12:24 57.27223 66.06622 17743 ft 428 kts 86°
2026-04-22 12:24 57.27648 66.12097 17706 ft 432 kts 81°
2026-04-22 12:24 57.28325 66.17502 17724 ft 431 kts 78°
2026-04-22 12:25 57.29055 66.22864 17725 ft 430 kts 78°
2026-04-22 12:25 57.29793 66.28210 17732 ft 427 kts 77°
2026-04-22 12:25 57.30522 66.33526 17714 ft 427 kts 78°
2026-04-22 12:25 57.31228 66.38855 17724 ft 428 kts 78°
2026-04-22 12:26 57.31925 66.44230 17707 ft 429 kts 79°
2026-04-22 12:26 57.32616 66.49593 17690 ft 428 kts 78°
2026-04-22 12:26 57.33284 66.54915 17720 ft 424 kts 79°
2026-04-22 12:26 57.33996 66.60215 17709 ft 424 kts 78°
2026-04-22 12:27 57.34682 66.65527 17710 ft 425 kts 79°
2026-04-22 12:27 57.35337 66.70871 17715 ft 425 kts 80°
2026-04-22 12:27 57.35996 66.76220 17715 ft 426 kts 79°
2026-04-22 12:27 57.36669 66.81559 17707 ft 426 kts 79°
2026-04-22 12:28 57.37345 66.86901 17714 ft 426 kts 79°
2026-04-22 12:28 57.38020 66.92256 17721 ft 425 kts 80°
2026-04-22 12:28 57.38699 66.97607 17701 ft 429 kts 79°
2026-04-22 12:28 57.39438 67.02974 17701 ft 430 kts 74°
2026-04-22 12:29 57.40666 67.08022 17713 ft 431 kts 58°
2026-04-22 12:29 57.42518 67.12370 17722 ft 428 kts 42°
2026-04-22 12:29 57.44754 67.15969 17726 ft 426 kts 36°
2026-04-22 12:29 57.47064 67.19493 18059 ft 435 kts 36°
2026-04-22 12:30 57.51716 67.26675 19436 ft 439 kts 36°
2026-04-22 12:30 57.54076 67.30357 19933 ft 446 kts 37°
2026-04-22 12:30 57.56460 67.34093 20572 ft 449 kts 37°
2026-04-22 12:31 57.58854 67.37878 21109 ft 454 kts 37°
2026-04-22 12:31 57.61271 67.41720 21608 ft 459 kts 37°
2026-04-22 12:31 57.63709 67.45607 22100 ft 462 kts 38°
2026-04-22 12:31 57.66165 67.49563 22554 ft 469 kts 37°
2026-04-22 12:32 57.68653 67.53531 23044 ft 472 kts 37°
2026-04-22 12:32 57.73658 67.61519 23982 ft 480 kts 37°
2026-04-22 12:32 57.76202 67.65599 24419 ft 484 kts 37°
2026-04-22 12:33 57.78771 67.69730 24845 ft 488 kts 37°
2026-04-22 12:33 57.81357 67.73898 25287 ft 492 kts 37°
2026-04-22 12:33 57.83958 67.78098 25758 ft 494 kts 37°
2026-04-22 12:33 57.86581 67.82359 26303 ft 491 kts 37°
2026-04-22 12:34 57.89145 67.86482 26732 ft 492 kts 37°
2026-04-22 12:34 57.91746 67.90696 27119 ft 496 kts 37°
2026-04-22 12:34 57.94349 67.94947 27664 ft 494 kts 37°
2026-04-22 12:34 57.96940 67.99192 28217 ft 492 kts 37°
2026-04-22 12:35 57.99519 68.03422 28706 ft 492 kts 37°
2026-04-22 12:35 58.02100 68.07658 29252 ft 490 kts 37°
2026-04-22 12:35 58.04657 68.11858 29712 ft 488 kts 37°
2026-04-22 12:35 58.07229 68.16087 29682 ft 490 kts 37°
2026-04-22 12:36 58.12306 68.24464 29697 ft 481 kts 37°
2026-04-22 12:36 58.17408 68.32683 29698 ft 482 kts 35°
2026-04-22 12:37 58.22646 68.40628 29694 ft 482 kts 34°
2026-04-22 12:37 58.27882 68.48606 29690 ft 482 kts 35°
2026-04-22 12:38 58.33083 68.56635 29680 ft 481 kts 35°
2026-04-22 12:38 58.38263 68.64686 29685 ft 480 kts 36°
2026-04-22 12:39 58.46003 68.76765 29679 ft 479 kts 36°
2026-04-22 12:40 58.51145 68.84848 29674 ft 478 kts 36°
2026-04-22 12:40 58.56275 68.92942 29682 ft 478 kts 36°
2026-04-22 12:41 58.61365 69.01001 29673 ft 478 kts 36°
2026-04-22 12:41 58.66486 69.09142 29677 ft 478 kts 36°
2026-04-22 12:42 58.71600 69.17299 29668 ft 478 kts 36°
2026-04-22 12:42 58.76737 69.25533 29666 ft 478 kts 36°
2026-04-22 12:43 58.81809 69.33694 29658 ft 478 kts 37°
2026-04-22 12:43 58.86904 69.41925 29655 ft 477 kts 37°
2026-04-22 12:44 58.91989 69.50166 29656 ft 477 kts 37°
2026-04-22 12:44 58.97070 69.58437 29656 ft 477 kts 37°
2026-04-22 12:45 59.02150 69.66737 29657 ft 477 kts 37°
2026-04-22 12:45 59.07218 69.75053 29656 ft 477 kts 37°
2026-04-22 12:46 59.12285 69.83399 29654 ft 478 kts 38°
2026-04-22 12:46 59.17346 69.91773 29656 ft 477 kts 38°
2026-04-22 12:47 59.22404 70.00174 29662 ft 477 kts 38°
2026-04-22 12:47 59.27456 70.08599 29655 ft 478 kts 38°
2026-04-22 12:48 59.32502 70.17047 29656 ft 478 kts 38°
2026-04-22 12:48 59.37543 70.25533 29654 ft 478 kts 38°
2026-04-22 12:49 59.42582 70.34033 29657 ft 477 kts 38°
2026-04-22 12:49 59.47609 70.42565 29656 ft 477 kts 39°
2026-04-22 12:50 59.52572 70.51266 29658 ft 477 kts 40°
2026-04-22 12:50 59.57495 70.60074 29652 ft 478 kts 40°
2026-04-22 12:51 59.62458 70.68779 29657 ft 478 kts 39°
2026-04-22 12:51 59.67476 70.77395 29655 ft 478 kts 38°
2026-04-22 12:52 59.72445 70.86023 29656 ft 478 kts 39°
2026-04-22 12:52 59.77389 70.94873 29657 ft 479 kts 39°
2026-04-22 12:53 59.82380 71.03632 29655 ft 479 kts 38°
2026-04-22 12:53 59.87386 71.12415 29653 ft 480 kts 39°
2026-04-22 12:54 59.92341 71.21341 29657 ft 481 kts 40°
2026-04-22 12:54 59.97290 71.30322 29661 ft 481 kts 39°
2026-04-22 12:55 60.01466 71.37628 29665 ft 481 kts 38°
2026-04-22 12:55 60.07329 71.47964 29666 ft 481 kts 40°
2026-04-22 12:56 60.12242 71.57093 29668 ft 481 kts 41°
2026-04-22 12:56 60.17112 71.66275 29666 ft 481 kts 40°
2026-04-22 12:57 60.22062 71.75340 29676 ft 480 kts 39°
2026-04-22 12:57 60.27048 71.84308 29672 ft 481 kts 39°
2026-04-22 12:58 60.31996 71.93411 29676 ft 481 kts 40°
2026-04-22 12:58 60.36875 72.02654 29688 ft 481 kts 41°
2026-04-22 12:59 60.41762 72.11902 29691 ft 481 kts 40°
2026-04-22 12:59 60.46682 72.21033 29684 ft 480 kts 40°
2026-04-22 13:00 60.51603 72.30159 29695 ft 479 kts 41°
2026-04-22 13:00 60.56484 72.39342 29698 ft 477 kts 41°
2026-04-22 13:01 60.61297 72.48477 29689 ft 475 kts 41°
2026-04-22 13:01 60.66132 72.57736 29718 ft 475 kts 42°
2026-04-22 13:02 60.70929 72.66894 29688 ft 473 kts 41°
2026-04-22 13:02 60.75793 72.76075 29699 ft 471 kts 43°
2026-04-22 13:03 60.80504 72.85313 29708 ft 467 kts 43°
2026-04-22 13:03 60.85165 72.94405 29709 ft 464 kts 43°
2026-04-22 13:04 60.89854 73.03524 29716 ft 464 kts 43°
2026-04-22 13:04 60.94519 73.12692 29717 ft 465 kts 43°
2026-04-22 13:05 60.99184 73.21926 29721 ft 466 kts 43°
2026-04-22 13:05 61.03856 73.31178 29721 ft 466 kts 43°
2026-04-22 13:06 61.08531 73.40469 29723 ft 466 kts 43°
2026-04-22 13:06 61.12403 73.48207 29719 ft 466 kts 43°
2026-04-22 13:07 61.17071 73.57610 29723 ft 465 kts 44°
2026-04-22 13:07 61.21681 73.66869 29720 ft 464 kts 43°
2026-04-22 13:08 61.26308 73.76192 29723 ft 463 kts 44°
2026-04-22 13:08 61.30902 73.85553 29719 ft 462 kts 44°
2026-04-22 13:09 61.35475 73.94913 29722 ft 460 kts 44°
2026-04-22 13:09 61.37743 73.99543 29529 ft 452 kts 44°
2026-04-22 13:09 61.39986 74.04118 29088 ft 450 kts 44°
2026-04-22 13:09 61.42231 74.08700 28495 ft 452 kts 44°
2026-04-22 13:10 61.44494 74.13321 27785 ft 457 kts 44°
2026-04-22 13:10 61.46766 74.17993 27152 ft 459 kts 44°
2026-04-22 13:10 61.49236 74.22234 26874 ft 462 kts 32°
2026-04-22 13:10 61.52010 74.25477 26760 ft 451 kts 21°
2026-04-22 13:11 61.54915 74.27598 26718 ft 431 kts
2026-04-22 13:11 61.57788 74.27891 26720 ft 399 kts 343°
2026-04-22 13:11 61.60401 74.26600 26749 ft 378 kts 336°
2026-04-22 13:11 61.62985 74.25717 26708 ft 378 kts 354°
2026-04-22 13:12 61.65569 74.26576 26721 ft 377 kts 18°
2026-04-22 13:12 61.67779 74.29381 26758 ft 366 kts 36°
2026-04-22 13:12 61.69938 74.32042 26725 ft 353 kts 22°
2026-04-22 13:12 61.72106 74.34284 26728 ft 344 kts 25°
2026-04-22 13:13 61.74204 74.36678 26512 ft 345 kts 27°
2026-04-22 13:13 61.76338 74.39215 25767 ft 362 kts 28°
2026-04-22 13:13 61.78682 74.41611 24624 ft 387 kts 16°
2026-04-22 13:13 61.81339 74.43321 23454 ft 411 kts 12°
2026-04-22 13:14 61.84153 74.44911 22620 ft 423 kts 12°
2026-04-22 13:14 61.86998 74.46484 22213 ft 420 kts 12°
2026-04-22 13:14 61.89802 74.48054 21925 ft 414 kts 12°
2026-04-22 13:14 61.92563 74.49627 21577 ft 410 kts 12°
2026-04-22 13:15 61.95308 74.51213 21185 ft 407 kts 12°
2026-04-22 13:15 61.98031 74.52803 20802 ft 404 kts 13°
2026-04-22 13:15 62.00736 74.54393 20427 ft 401 kts 13°
2026-04-22 13:15 62.03412 74.55974 20083 ft 398 kts 13°
2026-04-22 13:16 62.06067 74.57547 19733 ft 394 kts 13°
2026-04-22 13:16 62.08694 74.59106 19386 ft 390 kts 13°
2026-04-22 13:16 62.11303 74.60655 18930 ft 390 kts 13°
2026-04-22 13:16 62.13923 74.62215 18417 ft 391 kts 13°
2026-04-22 13:17 62.16547 74.63780 17937 ft 391 kts 13°
2026-04-22 13:17 62.19161 74.65344 17464 ft 390 kts 14°
2026-04-22 13:17 62.21775 74.66911 16963 ft 390 kts 14°
2026-04-22 13:17 62.24382 74.68479 16471 ft 389 kts 14°
2026-04-22 13:18 62.26991 74.70051 15910 ft 390 kts 14°
2026-04-22 13:18 62.29605 74.71627 15345 ft 390 kts 14°
2026-04-22 13:18 62.32219 74.73203 14791 ft 390 kts 15°
2026-04-22 13:18 62.34829 74.74780 14235 ft 390 kts 15°
2026-04-22 13:19 62.37438 74.76363 13760 ft 388 kts 15°
2026-04-22 13:19 62.40015 74.77925 13362 ft 383 kts 15°
2026-04-22 13:19 62.42595 74.79485 12637 ft 387 kts 15°
2026-04-22 13:19 62.45205 74.81066 11915 ft 391 kts 16°
2026-04-22 13:20 62.47791 74.82642 11266 ft 391 kts 16°
2026-04-22 13:20 62.50449 74.84261 10536 ft 392 kts 16°
2026-04-22 13:20 62.53048 74.85853 9912 ft 393 kts 17°
2026-04-22 13:20 62.55621 74.87437 9664 ft 380 kts 17°
2026-04-22 13:21 62.58107 74.88978 9580 ft 359 kts 17°
2026-04-22 13:21 62.60394 74.90377 9818 ft 324 kts 17°
2026-04-22 13:21 62.62477 74.91647 9735 ft 300 kts 17°
2026-04-22 13:21 62.64416 74.92837 9585 ft 280 kts 18°
2026-04-22 13:22 62.66235 74.93956 9452 ft 263 kts 18°
2026-04-22 13:22 62.67944 74.95011 9328 ft 248 kts 19°
2026-04-22 13:22 62.69575 74.96024 9165 ft 241 kts 19°
2026-04-22 13:22 62.71184 74.97027 8896 ft 240 kts 19°
2026-04-22 13:23 62.72776 74.98021 8521 ft 238 kts 19°
2026-04-22 13:23 62.74372 74.99013 8103 ft 236 kts 20°
2026-04-22 13:23 62.75875 74.99978 7949 ft 215 kts 23°
2026-04-22 13:23 62.77253 75.00988 7673 ft 206 kts 24°
2026-04-22 13:24 62.78594 75.01951 7399 ft 196 kts 24°
2026-04-22 13:24 62.79832 75.02831 7103 ft 181 kts 25°
2026-04-22 13:24 62.81025 75.03690 6672 ft 180 kts 26°
2026-04-22 13:24 62.82207 75.04540 6226 ft 179 kts 26°
2026-04-22 13:25 62.83383 75.05395 5803 ft 177 kts 27°
2026-04-22 13:25 62.84540 75.06233 5459 ft 171 kts 27°
2026-04-22 13:25 62.85664 75.07040 5278 ft 170 kts 28°
2026-04-22 13:25 62.86794 75.07861 5114 ft 171 kts 29°
2026-04-22 13:26 62.87920 75.08678 4941 ft 169 kts 29°
2026-04-22 13:26 62.89033 75.09482 4765 ft 167 kts 30°
2026-04-22 13:26 62.90129 75.10277 4594 ft 165 kts 30°
2026-04-22 13:26 62.91204 75.11057 4476 ft 160 kts 31°
2026-04-22 13:27 62.92270 75.11831 4405 ft 164 kts 31°
2026-04-22 13:27 62.93362 75.12631 4227 ft 166 kts 31°
2026-04-22 13:27 62.94446 75.13416 4064 ft 161 kts 31°
2026-04-22 13:27 62.95467 75.14151 4029 ft 151 kts 32°
2026-04-22 13:28 62.96507 75.14920 3963 ft 162 kts 32°
2026-04-22 13:28 62.97581 75.15665 3705 ft 159 kts 30°
2026-04-22 13:28 62.98622 75.16357 3356 ft 154 kts 31°
2026-04-22 13:28 62.99512 75.17135 3361 ft 128 kts 44°
2026-04-22 13:29 63.00379 75.18097 3430 ft 150 kts 42°
2026-04-22 13:29 63.01316 75.19108 3409 ft 148 kts 41°
2026-04-22 13:29 63.02237 75.20096 3405 ft 147 kts 42°
2026-04-22 13:29 63.03156 75.21071 3409 ft 147 kts 41°
2026-04-22 13:30 63.04045 75.22114 3405 ft 141 kts 50°
2026-04-22 13:30 63.04986 75.22992 3416 ft 153 kts 30°
2026-04-22 13:30 63.06021 75.23594 3418 ft 155 kts 28°
2026-04-22 13:30 63.07144 75.23570 3410 ft 171 kts 349°
2026-04-22 13:31 63.08283 75.22887 3401 ft 167 kts
2026-04-22 13:31 63.09255 75.23563 3434 ft 143 kts 44°
2026-04-22 13:31 63.10271 75.24248 3415 ft 161 kts 20°
2026-04-22 13:31 63.11443 75.23976 3421 ft 169 kts
2026-04-22 13:32 63.12594 75.23830 3420 ft 168 kts
2026-04-22 13:32 63.13762 75.23675 3414 ft 169 kts
2026-04-22 13:32 63.14934 75.23517 3407 ft 169 kts
2026-04-22 13:32 63.16118 75.23351 3365 ft 169 kts
2026-04-22 13:33 63.17291 75.23197 3094 ft 170 kts
2026-04-22 13:33 63.18448 75.23068 2797 ft 160 kts 15°
2026-04-22 13:33 63.19331 75.23963 2520 ft 130 kts 55°
2026-04-22 13:33 63.20066 75.25195 2252 ft 135 kts 49°
2026-04-22 13:34 63.20846 75.26370 1983 ft 135 kts 46°
2026-04-22 13:34 63.21625 75.27497 1710 ft 133 kts 45°
2026-04-22 13:34 63.22410 75.28599 1615 ft 134 kts 43°
2026-04-22 13:34 63.23199 75.29681 1582 ft 132 kts 42°
2026-04-22 13:35 63.23990 75.30743 1584 ft 133 kts 41°
2026-04-22 13:35 63.24793 75.31799 1584 ft 135 kts 40°
2026-04-22 13:35 63.25575 75.32906 1566 ft 129 kts 55°
2026-04-22 13:35 63.25725 75.34504 1586 ft 102 kts 116°
2026-04-22 13:36 63.25406 75.35965 1581 ft 108 kts 127°
2026-04-22 13:36 63.24751 75.36676 1593 ft 110 kts 166°
2026-04-22 13:36 63.24004 75.36120 1569 ft 131 kts 221°
2026-04-22 13:36 63.23804 75.34031 1572 ft 142 kts 252°
2026-04-22 13:37 63.23353 75.32173 1400 ft 139 kts 216°
2026-04-22 13:37 63.22580 75.31188 1200 ft 122 kts 192°
2026-04-22 13:37 63.21816 75.30422 1020 ft 120 kts 195°
2026-04-22 13:37 63.21056 75.29639 877 ft 120 kts 196°
2026-04-22 13:38 63.20270 75.28822 683 ft 125 kts 193°
2026-04-22 13:38 63.18790 75.27317 448 ft 98 kts 199°
2026-04-22 13:38 63.18486 75.27020 453 ft 12 kts 204°
2026-04-22 13:39 63.18402 75.26935 455 ft 12 kts 204°
2026-04-22 13:39 63.18335 75.26959 457 ft 10 kts 129°
2026-04-22 13:39 63.18298 75.27127 454 ft 12 kts 113°
2026-04-22 13:39 63.18257 75.27224 454 ft 7 kts 175°
2026-04-22 13:40 63.18205 75.27177 454 ft 10 kts 205°
2026-04-22 13:40 63.18189 75.27178 454 ft 4 kts 140°
2026-04-22 13:40 63.18180 75.27228 453 ft 1 kts 116°
2026-04-22 13:40 63.18178 75.27237 454 ft 1 kts 113°
2026-04-22 13:41 63.18178 75.27238 454 ft 0 kts 113°